GW5109 Weather Reports


time (UTC)temp
C
wind
direction
speed
KPH
gust
KPH
rain 1hr
cm
rain 24hr
cm
rain mn
cm
humidity
%
barometer
mb
20260504081811 8 256 0.0 1.6 0.00 0.00 0.00 58 1017.6
20260504081308 8 227 1.6 3.2 0.00 0.00 0.00 58 1017.4
20260504080804 8 281 3.2 4.8 0.00 0.00 0.00 58 1017.3
20260504080301 8 281 3.2 4.8 0.00 0.00 0.00 58 1017.3
20260504070228 7 209 0.0 0.0 0.00 0.00 0.00 59 1017.8
20260504060149 7 188 0.0 1.6 0.00 0.00 0.00 53 1018.5
20260504050617 8 252 3.2 3.2 0.00 0.00 0.00 50 1018.5
20260504050114 8 240 0.0 4.8 0.00 0.00 0.00 50 1018.5
20260504045611 8 247 3.2 4.8 0.00 0.00 0.00 50 1018.2
20260504045106 8 273 1.6 3.2 0.00 0.00 0.00 51 1018.4
20260504044604 7 239 0.0 3.2 0.00 0.00 0.00 51 1018.2
20260504044100 7 179 1.6 4.8 0.00 0.00 0.00 54 1018.1
20260504043558 7 195 1.6 1.6 0.00 0.00 0.00 53 1018.1
20260504043055 7 217 0.0 1.6 0.00 0.00 0.00 51 1018.2
20260504042552 7 169 0.0 1.6 0.00 0.00 0.00 51 1017.9
20260504042049 7 218 0.0 1.6 0.00 0.00 0.00 51 1018.2
20260504041545 7 207 0.0 1.6 0.00 0.00 0.00 49 1018.1
20260504041041 7 201 0.0 1.6 0.00 0.00 0.00 49 1018.0
20260504040538 7 195 1.6 3.2 0.00 0.00 0.00 49 1018.0
20260504040035 7 222 1.6 1.6 0.00 0.00 0.00 49 1018.2
20260504035532 7 198 0.0 0.0 0.00 0.00 0.00 48 1018.0
20260504035028 7 211 0.0 1.6 0.00 0.00 0.00 49 1018.2
20260504034526 7 211 0.0 3.2 0.00 0.00 0.00 48 1017.9
20260504034023 7 214 0.0 1.6 0.00 0.00 0.00 49 1018.0
20260504033521 7 188 0.0 1.6 0.00 0.00 0.00 48 1017.9
20260504033018 7 225 1.6 3.2 0.00 0.00 0.00 48 1018.1
20260504032515 7 222 1.6 1.6 0.00 0.00 0.00 47 1018.0
20260504032011 8 179 0.0 1.6 0.00 0.00 0.00 45 1017.8
20260504031509 8 184 0.0 0.0 0.00 0.00 0.00 46 1017.8
20260504031005 8 185 0.0 1.6 0.00 0.00 0.00 47 1018.0
20260504030502 7 192 0.0 1.6 0.00 0.00 0.00 48 1017.8
20260504025958 7 165 0.0 0.0 0.00 0.00 0.00 49 1017.9
20260504025455 7 179 0.0 0.0 0.00 0.00 0.00 49 1017.8
20260504024952 7 209 0.0 0.0 0.00 0.00 0.00 50 1018.1
20260504024449 6 181 0.0 0.0 0.00 0.00 0.00 50 1018.2
20260504023946 6 182 0.0 0.0 0.00 0.00 0.00 53 1017.9
20260504023442 6 134 0.0 0.0 0.00 0.00 0.00 53 1018.0
20260504022938 6 134 0.0 0.0 0.00 0.00 0.00 52 1018.1
20260504022435 6 172 0.0 0.0 0.00 0.00 0.00 53 1018.2
20260504021931 6 167 0.0 0.0 0.00 0.00 0.00 53 1018.0
20260504021429 6 179 0.0 0.0 0.00 0.00 0.00 52 1018.1
20260504020926 6 195 0.0 0.0 0.00 0.00 0.00 53 1018.2
20260504020422 6 195 0.0 0.0 0.00 0.00 0.00 52 1018.1
20260504015919 6 195 0.0 0.0 0.00 0.00 0.00 51 1018.0
20260504015415 7 196 0.0 0.0 0.00 0.00 0.00 50 1018.0
20260504014911 7 145 0.0 1.6 0.00 0.00 0.00 50 1018.0
20260504014407 7 145 0.0 1.6 0.00 0.00 0.00 50 1017.8
20260504013904 7 153 0.0 0.0 0.00 0.00 0.00 52 1017.9
20260504013403 7 155 0.0 0.0 0.00 0.00 0.00 50 1017.8
20260504012858 7 148 0.0 0.0 0.00 0.00 0.00 51 1017.7
20260504012357 7 211 0.0 0.0 0.00 0.00 0.00 48 1017.7
20260504011854 7 207 0.0 0.0 0.00 0.00 0.00 49 1017.5
20260504011350 7 146 0.0 0.0 0.00 0.00 0.00 53 1017.5
20260504010846 7 141 1.6 3.2 0.00 0.00 0.00 53 1017.2
20260504010342 7 151 1.6 3.2 0.00 0.00 0.00 52 1017.4
20260504005839 7 156 0.0 0.0 0.00 0.00 0.00 49 1017.6
20260504005336 7 157 1.6 3.2 0.00 0.00 0.00 50 1017.4
20260504004833 8 171 1.6 1.6 0.00 0.00 0.00 49 1017.4
20260504004331 8 234 0.0 0.0 0.00 0.00 0.00 47 1017.4
20260504003827 8 248 0.0 1.6 0.00 0.00 0.00 46 1017.3
20260504003324 9 155 1.6 3.2 0.00 0.00 0.00 46 1017.1
20260504002821 10 190 1.6 1.6 0.00 0.00 0.00 43 1017.1
20260504002317 10 220 0.0 1.6 0.00 0.00 0.00 38 1017.1
20260504001815 10 224 0.0 0.0 0.00 0.00 0.00 38 1017.1
20260504001312 11 227 0.0 6.4 0.00 0.00 0.00 37 1017.0
20260504000809 10 252 1.6 6.4 0.00 0.00 0.00 35 1017.0
20260504000306 11 219 0.0 3.2 0.00 0.00 0.00 42 1016.7
20260503235804 11 194 1.6 4.8 0.00 0.00 0.00 36 1017.1
20260503235301 11 219 0.0 3.2 0.00 0.00 0.00 36 1017.3
20260503234759 11 236 3.2 6.4 0.00 0.00 0.00 34 1017.0
20260503234256 12 244 3.2 6.4 0.00 0.00 0.00 34 1017.1
20260503233754 12 299 3.2 3.2 0.00 0.00 0.00 34 1017.0
20260503233249 12 247 0.0 1.6 0.00 0.00 0.00 34 1017.0
20260503232746 12 233 3.2 11.3 0.00 0.00 0.00 32 1017.3
20260503232243 13 207 0.0 11.3 0.00 0.00 0.00 32 1017.2
20260503231741 13 249 3.2 9.7 0.00 0.00 0.00 32 1017.2
20260503231238 13 252 9.7 16.1 0.00 0.00 0.00 32 1017.3
20260503230729 13 320 3.2 4.8 0.00 0.00 0.00 33 1017.3
20260503230226 13 243 8.0 11.3 0.00 0.00 0.00 30 1017.2
20260503225718 13 263 3.2 9.7 0.00 0.00 0.00 33 1017.3
20260503225217 14 121 1.6 4.8 0.00 0.00 0.00 32 1017.3
20260503224714 13 250 6.4 11.3 0.00 0.00 0.00 30 1017.6
20260503224212 14 236 4.8 4.8 0.00 0.00 0.00 32 1017.4
20260503223710 14 312 4.8 9.7 0.00 0.00 0.00 30 1017.3
20260503223207 14 239 6.4 11.3 0.00 0.00 0.00 29 1017.3
20260503222703 13 253 3.2 11.3 0.00 0.00 0.00 29 1016.8
20260503222201 14 279 6.4 12.9 0.00 0.00 0.00 30 1017.5
20260503221659 14 133 4.8 6.4 0.00 0.00 0.00 30 1017.2
20260503221156 14 254 3.2 4.8 0.00 0.00 0.00 27 1017.1
20260503220653 14 259 6.4 16.1 0.00 0.00 0.00 29 1017.4
20260503220149 14 121 1.6 6.4 0.00 0.00 0.00 30 1017.4
20260503215647 15 219 6.4 9.7 0.00 0.00 0.00 31 1017.3
20260503215143 14 208 1.6 9.7 0.00 0.00 0.00 29 1017.3
20260503214643 14 132 3.2 12.9 0.00 0.00 0.00 30 1017.5
20260503214138 14 288 4.8 14.5 0.00 0.00 0.00 28 1017.7
20260503213638 14 303 1.6 6.4 0.00 0.00 0.00 30 1017.6
20260503213134 14 255 8.0 16.1 0.00 0.00 0.00 30 1017.6
20260503212631 15 285 4.8 16.1 0.00 0.00 0.00 29 1017.7
20260503212129 14 223 3.2 12.9 0.00 0.00 0.00 32 1017.5
20260503211627 14 246 6.4 9.7 0.00 0.00 0.00 31 1017.4
20260503211122 15 195 8.0 16.1 0.00 0.00 0.00 29 1017.6
20260503210618 14 144 3.2 11.3 0.00 0.00 0.00 31 1017.5
20260503210115 14 271 9.7 12.9 0.00 0.00 0.00 31 1017.5
20260503205611 14 229 3.2 11.3 0.00 0.00 0.00 31 1017.5
20260503205107 13 236 4.8 9.7 0.00 0.00 0.00 30 1017.7
20260503204604 13 243 8.0 17.7 0.00 0.00 0.00 33 1017.7
20260503204101 14 268 1.6 4.8 0.00 0.00 0.00 29 1017.8
20260503203558 14 268 4.8 12.9 0.00 0.00 0.00 34 1017.7
20260503203055 13 199 8.0 14.5 0.00 0.00 0.00 28 1017.9
20260503202553 13 292 9.7 11.3 0.00 0.00 0.00 31 1018.0
20260503202051 14 301 6.4 16.1 0.00 0.00 0.00 30 1018.0
20260503201549 13 244 4.8 6.4 0.00 0.00 0.00 30 1018.0
20260503201046 13 230 4.8 6.4 0.00 0.00 0.00 29 1018.2
20260503200542 13 166 3.2 16.1 0.00 0.00 0.00 35 1018.4
20260503200039 13 268 8.0 12.9 0.00 0.00 0.00 31 1018.1
20260503195536 13 330 9.7 12.9 0.00 0.00 0.00 29 1018.1
20260503195032 13 239 3.2 11.3 0.00 0.00 0.00 33 1018.2
20260503194530 13 275 9.7 16.1 0.00 0.00 0.00 30 1018.5
20260503194030 13 285 4.8 9.7 0.00 0.00 0.00 31 1018.7
20260503193527 13 352 6.4 12.9 0.00 0.00 0.00 30 1018.6
20260503193022 12 35 4.8 17.7 0.00 0.00 0.00 31 1018.8
20260503192518 14 253 3.2 9.7 0.00 0.00 0.00 30 1018.9
20260503192014 13 191 6.4 9.7 0.00 0.00 0.00 30 1019.0
20260503191511 13 254 6.4 9.7 0.00 0.00 0.00 30 1019.1
20260503191008 13 263 8.0 17.7 0.00 0.00 0.00 35 1019.1
20260503190505 13 269 6.4 6.4 0.00 0.00 0.00 35 1019.1
20260503190002 13 130 1.6 4.8 0.00 0.00 0.00 33 1019.3
20260503185458 13 303 1.6 14.5 0.00 0.00 0.00 37 1019.4
20260503184957 12 235 3.2 11.3 0.00 0.00 0.00 35 1019.4
20260503184454 13 169 6.4 14.5 0.00 0.00 0.00 35 1019.2
20260503183950 13 66 6.4 6.4 0.00 0.00 0.00 34 1019.2
20260503183447 12 217 3.2 4.8 0.00 0.00 0.00 33 1019.4
20260503182944 12 337 1.6 11.3 0.00 0.00 0.00 34 1019.4
20260503182443 12 173 1.6 4.8 0.00 0.00 0.00 36 1019.6
20260503181940 12 284 6.4 12.9 0.00 0.00 0.00 32 1019.5
20260503181437 12 98 3.2 6.4 0.00 0.00 0.00 34 1019.6
20260503180933 13 229 4.8 6.4 0.00 0.00 0.00 35 1019.6
20260503180431 12 140 1.6 4.8 0.00 0.00 0.00 42 1019.4
20260503175928 11 181 1.6 9.7 0.00 0.00 0.00 33 1019.8
20260503175426 11 345 3.2 9.7 0.00 0.00 0.00 33 1019.9
20260503174921 11 265 1.6 9.7 0.00 0.00 0.00 36 1019.8
20260503174421 12 284 1.6 3.2 0.00 0.00 0.00 38 1020.0
20260503173920 12 277 8.0 16.1 0.00 0.00 0.00 32 1020.2
20260503173417 11 313 8.0 9.7 0.00 0.00 0.00 34 1019.9
20260503172914 12 303 3.2 6.4 0.00 0.00 0.00 36 1020.1
20260503172411 12 266 4.8 4.8 0.00 0.00 0.00 40 1020.1
20260503171907 11 242 4.8 4.8 0.00 0.00 0.00 41 1019.8
20260503171404 10 163 4.8 9.7 0.00 0.00 0.00 42 1020.1
20260503170902 11 141 9.7 12.9 0.00 0.00 0.00 38 1020.2
20260503170358 11 52 4.8 14.5 0.00 0.00 0.00 36 1020.2
20260503150749 7 269 4.8 11.3 0.00 0.00 0.00 49 1021.4
20260503150245 7 331 9.7 12.9 0.00 0.00 0.00 47 1021.0
20260503140210 5 320 4.8 16.1 0.00 0.00 0.00 48 1021.3
20260503131139 5 13 1.6 3.2 0.00 0.00 0.00 61 1021.2
20260503130637 5 233 3.2 6.4 0.00 0.00 0.00 60 1021.3
20260503130134 4 267 1.6 3.2 0.00 0.00 0.00 62 1020.7
20260503110527 0 263 6.4 12.9 0.00 0.00 0.00 80 1019.6